CAPE
1722 1984 2376 2450 2468 2491 2686 3114 3113 3090 2996 2988 3105 3184 3288 3342 3437 3370 3344 3348 3416 3279 3383 3282 3471 3505 3554 3562 3617 3432 3430 3572 3553 3622 3442 3434 3462 3378 3364 3343 3301 3419 2884 2824 3020 3039 3160 2929 3134 3110 3020 2794 2483 2593 2647 2589 2654 2453 2334 1923 1536 2082 1901 2099 1955 2002 2234 2285 2349 2448 2206 2289 2112 1824 2012 1980 2265 2146 2321 2362 2631 2417 2670 2911 2908
1528 1756 2238 2632 2365 2519 2659 3151 3161 3106 2889 2973 2976 3092 3286 3314 3484 3402 3341 3443 3413 3476 3420 3494 3566 3555 3610 3727 3636 3520 3454 3540 3602 3525 3432 3384 3311 3319 3305 3268 3278 3070 2920 2884 2728 2982 2622 2833 3042 3036 2458 2661 2454 2461 2070 2118 2246 2652 2352 2141 1626 1739 1835 1768 1934 1876 1887 1910 2155 1853 2050 2156 2037 2008 2012 2066 2041 2005 2095 2157 2361 2511 2489 2866 2958
1449 1957 2149 2516 2563 2623 2873 3117 3008 3024 3038 3024 3031 3033 3363 3398 3444 3484 3459 3506 3492 3479 3596 3444 3541 3627 3702 3737 3669 3673 3564 3598 3464 3186 3017 3162 3210 3162 3191 3245 3208 2850 2891 2815 2669 2498 2330 2681 2799 2592 2623 2249 1872 1600 1347 2156 2227 2520 2862 2128 1480 1684 1708 1892 1622 1873 1863 2042 1765 1907 2121 1932 2042 2155 2041 2063 2084 1781 2012 2058 2270 2613 2738 2983 2843
1610 2030 2222 2652 2648 2757 2999 2920 2848 2789 3026 3160 3278 3389 3436 3291 3300 3403 3574 3628 3597 3499 3424 3528 3596 3524 3578 3643 3605 3674 3594 3431 2798 2798 3126 3122 3080 3208 3177 3198 3165 3159 3281 2839 2622 2403 2470 2529 2418 2310 2326 2077 1825 1676 1896 1909 2287 2393 2424 2438 1911 1699 1899 1746 1740 1772 2026 1941 1941 1746 2066 1987 2108 1768 2020 1987 2014 2097 2098 2026 2244 2743 2954 2794 2806
1695 1847 2309 2458 2766 3033 3212 2951 2924 2737 2978 3243 3377 3455 3514 3553 3535 3563 3549 3539 3630 3599 3507 3509 3622 3583 3556 3576 3560 3618 3560 2732 2552 2861 3154 3136 3180 3265 3194 3197 3221 3117 2616 2974 2706 2446 2446 2052 1630 1286 1862 1955 1788 1893 1946 1896 2280 2187 2192 2370 2096 1531 1366 1248 1566 2049 1908 2021 1980 2033 1848 1985 2141 2244 1876 1871 2059 2256 2125 2028 2727 3145 2930 2582 2270
1562 2038 2010 2211 2433 2762 3246 3001 2808 2828 2962 3327 3419 3384 3479 3579 3530 3499 3537 3544 3562 3481 3563 3528 3538 3488 3531 3505 3363 3273 3036 2531 2673 3189 3268 3302 3171 3251 3171 3208 3144 3176 2639 2466 2344 2388 2129 1851 1560 1454 1873 1741 1804 1903 2128 1884 1928 2289 2613 2361 2454 2203 1653 1610 1683 1905 1595 1796 1670 2841 1744 2180 1803 1723 1754 1980 2114 2150 2307 2337 2959 2870 2587 2300 2206
1565 2000 2136 2209 2372 2840 3262 3273 2868 2925 3177 3304 3420 3419 3542 3474 3478 3416 3410 3321 3345 3403 3425 3392 3270 3278 3255 3204 3007 3244 2991 2783 3139 3348 3345 3265 3121 3113 3136 3002 2802 2807 2202 2230 2180 2268 1945 1728 1294 1712 1942 1770 1963 2053 1916 1956 1714 2042 1976 2034 2359 2247 2253 1783 2195 2093 2082 1698 1520 2469 2422 2356 1535 1473 1732 1790 2095 2290 2477 2554 2857 2825 2555 2283 1981
1777 1902 1951 1927 2242 3010 3249 3229 3179 3020 3164 3354 3514 3483 3533 3334 3284 3287 3476 3414 3303 3275 3143 3069 3079 3080 2903 3028 3003 3031 2961 2825 2918 2996 2762 2757 3016 3081 3193 3069 2598 2468 2260 2443 2167 2062 1580 1333 1558 1592 1820 1766 1973 2013 2084 2124 2018 2168 2238 2220 2193 2239 2387 2394 2182 2155 1838 1744 2292 2056 2127 2103 1961 1407 1560 1654 2052 2481 2963 2864 2738 2598 2388 2104 2030
1756 1915 2169 2084 2594 3009 3246 3164 3220 3073 3231 3342 3474 3428 3404 3236 3244 3394 3373 3324 3300 3240 3127 3048 2983 2996 2948 2881 2816 2781 2720 2611 2806 3015 3029 3087 3088 3099 3118 2892 3065 3031 2845 2522 2278 1979 1686 1442 1252 1337 1364 1323 1577 1489 1608 1920 1999 1867 2060 1842 2060 1994 2104 2169 2184 2672 2077 1938 2814 2879 2323 2188 1766 1664 1512 1691 2079 2471 2984 2616 2532 2166 2002 2126 1973
1903 1945 2174 2261 2723 3352 3202 3115 3195 3210 3145 3290 3394 3417 3240 3110 3132 3225 3030 3044 2994 2893 2940 3020 3117 2862 2736 2868 3002 2850 2914 3058 3084 3124 3212 3295 3262 3173 3106 2987 2990 3030 2662 2483 2188 1918 1532 1480 1315 1165 1216 1279 1459 1495 1527 1879 1944 1884 1735 1929 2079 1904 2071 2218 2386 2320 2285 1919 2368 2891 2871 2390 1979 2150 1846 1939 2429 2659 1963 2019 1516 1774 2005 2279 1972
1927 2054 2134 2281 3164 3291 3203 3235 3212 3135 3126 3329 3351 3306 3136 3028 3143 2981 2952 2873 2834 2767 2901 2938 2933 2485 2604 2635 2695 2706 2860 2810 2682 2613 2838 2931 2752 2869 3028 2706 2455 2458 2188 2259 2120 1783 1459 1303 989 854 839 1202 1259 1470 1993 2116 1918 1732 1558 1625 1856 2003 2159 2214 1617 2218 2904 2429 2238 2515 2664 2249 1812 1557 1519 2374 2341 2000 1920 1769 1708 1971 2187 1989 2256
1890 2016 2130 2473 3297 3295 3166 3166 3210 3082 3147 3298 3342 3203 2955 2873 2778 2709 2927 2872 2756 2735 2796 2908 2560 2401 2506 2410 2511 2715 2690 2464 2532 2448 2474 2682 2728 3000 3074 2891 2855 2413 1974 2010 1947 1572 1266 1046 953 886 932 1132 1236 1347 1689 1757 1862 1718 1651 1607 1720 2056 2217 2309 2402 2156 2845 2437 2242 2232 2239 1771 2060 1415 1984 2389 2093 1922 1907 1763 1890 2125 2039 2261 2557
1734 1860 2180 2455 3156 3262 3221 3218 3111 3074 3031 3255 3283 3071 2922 2856 2810 2737 2675 2775 2626 2863 2830 2614 2516 2646 2470 2532 2670 2515 2282 2442 2444 2444 2686 2631 2699 2764 2895 3019 2873 2702 1939 1811 1499 1153 1103 1203 1030 1009 1109 1356 1280 1439 1345 1531 1687 1744 1788 1716 1750 2051 2296 2381 2836 2565 2424 2266 2378 2629 2372 2181 2124 1836 2476 2148 2094 1880 1799 1882 2094 2045 2027 2526 2618
898 1342 2110 2315 2640 3174 3170 3179 3093 3060 2981 3260 3221 3040 2959 2917 2780 2701 2610 2638 2796 2762 2587 2482 2396 2587 2541 2733 2556 2445 2466 2565 2423 2605 2548 2627 2788 2913 2855 2805 2764 2422 1685 1233 1023 1117 1185 1370 1393 1418 1412 1440 1506 1448 1436 1361 1786 1810 1559 1568 1861 2011 1876 2365 2072 2943 2905 2852 1954 2224 2074 1597 2743 2377 2265 2078 1900 1881 1844 2298 2172 1971 2307 2551 2587
1292 1452 2032 2155 2526 2857 2924 3049 3117 3051 2838 3140 3118 3110 2930 2830 2695 2595 2509 2739 2755 2676 2545 2549 2610 2727 2774 2683 2633 2549 2672 2556 2588 2594 2616 2656 2721 2778 2805 2701 1955 1699 1453 852 911 1020 1287 1515 1721 1624 1440 1270 1530 1432 1345 1392 1321 1515 1406 1227 1864 1835 1832 3323 3094 3176 2986 3126 2847 1687 2080 1772 2088 2474 2172 2014 1953 1990 2248 2275 1933 2264 2337 2424 2463
1500 1787 1869 2112 2486 2863 3015 2836 3074 2557 2770 2974 2942 2866 2707 2640 2585 2517 2636 2711 2657 2710 2489 2778 2640 2741 2846 2779 2653 2720 2579 2485 2599 2663 2722 2847 2855 2739 2634 2458 1982 1630 1296 1186 1169 1183 1628 1713 1758 1511 1340 1205 1135 1074 1206 1400 1357 1370 1221 1269 1469 1957 2091 2222 2573 2814 2760 2661 2994 2332 2689 1969 2298 2491 2162 2057 2084 2399 2442 1888 2258 2233 2316 2285 2290
1503 1615 1619 1988 2241 2607 2633 3204 2876 2660 2820 2747 2740 2597 2438 2502 2495 2606 2530 2611 2674 2693 2822 2676 2801 2920 2752 2796 2745 2753 2690 2608 2737 2778 2899 2870 2907 2790 2618 2371 1564 1308 1364 1004 1410 1522 1394 1336 1220 965 974 1130 1047 833 1021 1281 1400 1484 1393 1369 1554 1679 1785 2149 2389 2599 2620 3009 3317 2925 3002 2141 2646 2502 2201 2048 2264 2597 2335 1904 2009 2277 2138 2187 2234
1556 1514 1616 1925 2265 2158 2030 2624 2876 2893 2811 2707 2453 2404 2304 2421 2257 2722 2609 2578 2559 2674 2643 2664 2714 2888 2824 2692 2695 2768 2771 2822 2835 2838 2832 2962 2960 2786 2617 2312 1865 1240 1269 938 1207 1029 1130 1046 1185 1072 1055 1044 802 924 1077 1286 1132 1275 1550 1397 1440 1490 1943 1970 2306 2302 2639 2939 2763 2932 2743 2006 2586 2555 2222 2170 2406 2614 2309 2096 2097 2260 2181 2252 2432
1428 1467 1526 1864 2270 2294 2228 2514 2930 2434 2635 2396 2428 2370 2065 2174 2418 2716 2659 2522 2230 2632 2652 2650 2732 2827 2594 2790 2803 2842 2857 2894 2951 2906 3164 2929 2837 2419 2885 2364 1913 1151 1153 648 959 1204 1102 976 1170 1293 1273 942 911 1146 1390 1382 1312 1196 1436 1347 1408 1637 1624 1657 2031 2073 2576 2557 2454 2617 2775 2629 2417 2554 2480 2326 2552 2615 2248 2174 2313 2295 2290 2373 2477
1417 1464 1760 1719 2177 2297 2264 2391 2586 2394 1718 2114 2183 2129 2188 2307 2441 2471 2782 2335 2407 2634 2769 2537 2580 2627 2651 2894 2840 2816 3028 3248 3108 3019 3298 3047 2987 2938 2890 2718 1811 1765 1319 981 1120 1204 1153 1040 1044 877 1014 972 868 992 1110 1151 1538 1402 1336 1480 1622 1626 2060 2168 2291 2411 2173 2125 2550 2547 3236 2988 2696 2641 2507 2442 2641 2643 2292 2278 2394 2445 2450 2524 2613
1354 1240 1437 1799 2079 2198 2260 2544 2590 2340 1847 2058 2168 2278 2094 2132 2451 2624 2756 2570 2693 2561 2869 2278 2852 2621 2699 2916 2758 2478 3255 3002 2323 2170 2953 2588 2894 2980 2914 2684 2239 2272 1339 1395 1436 1583 1327 1263 1272 1402 1184 1140 1108 994 1035 1206 1319 1253 1454 1396 1569 1866 2384 2579 2428 2238 1969 2171 2080 2427 3107 2920 3031 2813 2535 2486 2618 2648 2467 2362 2462 2477 2575 2594 2667
887 732 1268 1641 1796 2037 2194 2502 2659 2462 1963 1831 1677 1916 2407 2353 2334 2598 2824 2561 2483 2701 2690 2479 2772 2568 2305 2357 2972 2939 2532 2983 2262 2259 2085 2915 2445 2992 3004 2933 3047 3067 2267 1955 1732 1702 1649 1545 1285 1269 1163 1168 1160 1402 1243 1394 1188 1188 1472 1396 1724 2295 2253 2286 2389 2160 2114 1987 2294 2894 2754 2854 3001 2982 2623 2776 2449 2482 2511 2421 2465 2568 2727 2797 2876
403 727 1021 1378 1741 1589 1835 2192 2454 2562 2001 1828 1680 2020 1999 2314 2301 2660 2619 2364 2402 2520 2487 2442 2362 2568 2730 2818 3124 2429 2386 2605 2802 3129 3561 2827 2182 3303 3089 3138 3119 3278 3338 2548 2012 1611 1810 1551 1497 1389 1574 1089 1126 1944 2275 1648 1583 1172 1247 1693 2251 2363 2136 2252 2385 2227 2278 2005 2029 2536 2429 2332 2828 3052 2676 2926 2653 2437 2358 2610 2563 2560 2577 2766 2847
611 740 790 1346 1542 1455 1484 1309 2136 2058 1757 1471 1504 1331 1844 1954 1902 2115 2118 2372 2385 2413 2351 2412 2505 2598 2403 2526 2494 2641 2762 2645 3450 2745 2554 2450 2186 3420 3262 3200 3303 3177 3065 2152 2000 1919 1624 1714 1798 1834 1753 1742 1862 1662 1628 1777 1147 1125 1294 1402 2049 2262 2273 2080 2144 2144 2119 2350 2161 2229 2242 2226 2397 2811 2749 2829 2888 2406 2567 2732 2672 2595 2495 2562 2661
984 828 1012 1022 1481 1746 1621 1327 2013 2177 1918 1395 1454 1094 1519 1556 1565 1780 1948 2071 1887 1987 2285 2512 2238 2428 2453 2696 1552 2171 1736 1566 2037 1680 1480 1158 1223 1851 2135 2925 3154 3356 2918 3351 2092 1792 1791 1926 1689 1583 1629 1706 2034 2077 1618 1834 1300 1071 993 1402 1845 2166 2036 2173 2169 2074 2132 2425 2287 2117 2110 2218 2290 2608 2790 2497 2731 2480 2685 2889 2811 2734 2619 2645 2615
917 820 1000 1115 1139 1632 1631 1628 1876 2243 1734 1576 1307 1025 1600 1512 1659 1697 1708 1796 1790 1928 1885 2058 2241 2437 2472 2136 1735 1471 1415 1022 1582 1704 1288 1440 1027 1524 1820 3118 3303 2906 2755 2689 2366 2680 2894 2475 1655 1772 1802 1716 2192 2100 1852 2168 2046 1431 1266 1280 1943 2219 2185 2272 2345 2452 2196 2363 2464 1907 2046 2241 2269 2437 2687 2471 2319 2436 2417 2427 2867 2712 2655 2854 2756
1128 972 1037 1155 1018 1087 1451 1465 1764 1906 1841 1580 1510 1508 1360 1309 1534 1811 1676 1580 1685 1869 1740 1692 1721 2513 2642 2060 1272 383 368 325 621 1288 1375 744 755 869 1697 2683 2904 2265 2393 2274 2392 2615 2842 2917 3280 2832 2616 2801 2101 2077 1956 2370 2581 2469 1696 1461 2120 1920 2061 2153 2270 2510 2217 2420 2448 1842 1949 2212 2190 2338 2539 2507 2174 2342 2397 2505 2596 2751 2634 2625 3000
1650 1075 937 923 1025 964 1439 1278 1778 1765 1994 1546 1916 1512 1476 1292 1384 2048 1919 1424 1658 1794 1569 1511 1368 2471 2714 1806 2007 388 107 143 132 395 378 304 369 418 663 1605 2374 2050 2116 2188 2178 2663 2967 2448 2687 3186 2828 2586 2379 2445 2162 2459 2494 2244 2257 1289 1965 1913 1919 2016 2383 2439 2228 2327 2485 1939 1947 2063 2160 2229 2263 2331 2209 2241 2040 2390 2211 2334 2433 2557 2608
1522 1357 860 727 823 678 1423 1396 1418 1821 1791 1582 1443 1714 1624 1711 1529 1711 1927 2032 2029 1518 1276 1552 1566 1482 1972 2711 2500 844 154 40 57 67 158 131 144 165 168 204 1455 2227 2091 1942 2170 2800 2972 2629 2477 2540 3388 2945 2594 2736 2784 2509 2744 2520 2141 1503 1139 1489 2143 2108 2119 2368 2356 2193 2341 2332 2058 2087 2134 2083 2079 2197 2248 2135 2090 2244 2411 2419 2359 2674 2586
1428 1603 1422 1304 1087 956 950 1167 1245 1577 1523 1552 1641 1712 1723 1865 1992 1921 1693 2283 1824 1513 2087 1276 917 689 882 2168 1905 1218 156 33 15 39 48 83 64 48 41 54 717 2079 1915 1884 2233 2446 2622 2660 2657 2328 2888 2982 2716 2716 2613 2756 2471 2388 2116 2023 1576 1532 2074 2001 2036 2004 2247 2155 2173 2166 1955 2035 2048 1976 1991 1996 2107 2168 2158 2214 2288 2378 2180 2471 2625
1534 1560 1774 1800 1658 1522 1193 1330 1337 1685 1772 1349 1623 1711 2068 1945 1983 2069 2138 2162 1644 1839 1857 986 588 377 372 1970 2916 2427 733 100 25 62 55 43 26 41 23 41 349 1832 1966 1837 2090 2404 2579 2476 2556 2356 2364 2578 2835 2798 2419 2015 2613 2247 2008 1598 1306 1474 1996 2071 1978 1743 2204 2054 2084 2238 2448 2152 2158 2029 1982 1973 2040 2150 2252 2116 2260 2318 2311 2499 2668
2167 1991 1862 1525 1369 1473 1526 1971 1931 2035 2382 2164 2075 2031 2092 2306 2355 2153 2216 2256 2359 1864 1213 994 782 418 790 1712 2598 1412 1122 205 123 260 44 64 39 8 8 48 224 1680 2064 1956 2067 2400 2576 2583 2733 2548 2693 2284 3011 2676 2452 2059 2042 1662 1612 2021 1885 1807 2031 2079 2107 2055 2118 2072 2351 2394 2592 2432 2178 2132 2058 1989 2020 2120 2220 2310 2301 2394 2346 2426 2509
1947 2110 2224 1318 1262 1672 1788 1962 1945 1951 2140 2374 2327 2446 2514 2355 2360 2386 2625 2936 3289 2934 2498 2265 1858 1656 1672 1963 2147 2281 1657 616 224 768 634 144 51 47 40 41 125 1245 2034 2169 2015 2615 2510 2364 2273 2271 1993 1963 2469 2090 1970 2219 2579 2523 2029 2282 2003 2071 2256 2053 2116 2306 2269 2317 2377 2317 2288 2390 2535 2248 2110 2033 1950 2096 2223 2332 2288 1954 2208 2349 2456
1810 2031 1736 1564 1580 1678 1603 1970 1500 1375 1348 1715 1805 1694 2019 1913 1920 2639 2765 3064 2980 2918 2974 2866 2816 2935 3023 3279 3009 2736 2477 1922 1258 1142 1490 626 335 241 114 26 202 698 2234 2305 2150 2007 1978 2639 2194 1964 2074 2644 2336 2130 1848 1604 2302 1702 1913 2471 2260 2195 1989 2072 2260 2189 2259 2454 2358 2390 2305 2375 2418 2465 2115 1990 1930 1972 1999 2110 2408 2251 2296 2324 2431
1347 1496 1560 1784 1805 1739 1608 1390 1794 1480 1368 1361 1606 1647 1556 1434 1807 1567 2271 2920 2749 2879 2764 2624 2587 2633 2694 2843 3140 3160 3157 2778 2562 1912 1335 1080 608 436 215 49 300 1476 1791 1947 2044 1951 1925 2215 2623 3010 3563 2896 2236 2270 2214 2257 2683 2425 2032 2217 2369 2408 2254 2188 2051 2274 2356 2418 2384 2461 2714 2525 2290 2118 2190 2356 1988 2009 2060 2089 2112 2080 2175 2176 2374
1571 1727 1403 1442 1404 1514 1812 1535 1824 1899 1508 1288 1376 1810 1745 1430 1580 1660 1575 2228 2125 2120 2264 2212 1923 2070 2324 2364 2902 3224 3290 3341 3203 2703 1750 1125 752 529 366 206 414 909 1548 1873 2309 1957 1933 1894 2639 2131 2114 1926 2853 2738 2469 2201 2385 3078 2338 2148 2383 2197 2361 2413 2396 2485 2432 2491 2490 2572 2716 2615 2347 2195 2132 2263 2314 1998 2084 2111 2028 1995 2071 2210 2296
1553 1551 1824 1472 1303 1629 1923 1813 1756 1820 1832 1938 1747 1468 1689 1478 1440 1614 1390 1165 1441 1293 1790 1524 1749 1750 1794 1868 2200 2660 2965 3300 3811 3272 2102 1490 1009 679 495 389 387 557 1192 1576 1888 1852 1787 1475 2807 2596 2324 2861 2232 2350 2676 2349 2734 2751 2524 2452 2547 1791 2218 2445 2473 2506 2586 2620 2555 2548 2465 2629 2475 2262 2627 2274 2303 2396 2276 2207 2081 2100 2110 2108 2303
1634 1673 1494 1489 1794 1855 1624 1423 1684 1782 2059 2416 1729 1716 1412 1488 1430 1379 1237 1319 1512 1844 1994 1823 2061 1736 1487 1777 2034 2512 2753 3152 3544 3446 2852 1723 1402 1306 1315 1220 1265 1684 1781 1672 1739 1641 1844 1852 1948 2674 2510 2236 2320 2334 2635 1951 2179 1675 2080 2196 2136 1716 2175 2308 2307 2269 2674 2594 2381 2495 2439 2549 2408 2510 2313 2090 1889 2162 2630 2316 2155 2108 2241 2260 2194
1859 1846 1502 1640 1702 1933 1909 1696 1807 1771 1920 1731 1778 1302 1272 1257 1254 1242 1120 1316 1222 1466 1992 2194 1650 2014 1705 1654 2132 2420 2461 2948 3179 3668 3001 2291 1785 1509 1569 1837 2011 2026 2055 1843 1772 1780 1814 1888 1989 1888 2397 2119 2111 2466 2714 2081 1557 1516 1492 2102 2384 2159 2179 2636 2551 2392 2699 2753 2568 2289 2601 2313 2369 2482 2698 2588 2235 2022 2212 2759 2231 2201 2270 2420 2368
1916 1755 2114 1932 1816 1701 1639 1680 1624 1772 1261 1207 1422 1344 1415 1459 1202 1103 1257 1506 1359 2002 1796 2123 1998 1950 1772 2129 2178 2316 2279 2578 2968 3301 3433 2638 1991 1668 1729 1874 2078 2140 2158 1998 1717 1673 1884 2050 2297 1725 2038 2290 2311 1965 1931 1764 1484 1766 1921 2061 1638 1919 2078 2744 2531 2733 2767 2824 2742 2444 2404 2608 2484 2437 2549 2735 2601 2487 2214 2297 2650 2163 1983 2342 2356
1978 2127 2371 2326 2298 1786 1967 1970 1808 1792 1794 1336 1154 1184 1204 1178 1186 1176 1389 1293 1986 1279 2032 2384 2059 1594 1405 1771 2039 1929 2164 2521 2864 3158 3108 3136 2610 2167 1973 2050 2107 2104 2113 2163 2018 1828 1796 2067 2165 2763 1609 1573 1562 1755 1984 1730 1568 1624 2101 2135 2167 1915 2084 2468 3059 2910 2808 2720 2747 2558 2456 2621 2765 2516 2507 2548 2636 2610 2596 2342 2136 2303 2367 2540 2580
1942 1767 1674 2163 2312 2277 2192 2270 2374 2251 2260 1729 1641 1609 1901 1686 2061 2317 1945 2009 1912 2041 1752 2259 2100 1954 1765 1898 2013 1431 1621 2512 2832 3129 3248 3010 2739 2364 2170 2192 2180 2183 2324 2439 2436 2398 2472 2116 1806 1826 1941 1332 1325 1272 1386 1774 1413 1596 1525 1631 1858 2332 2394 2667 3528 3234 3060 2702 2659 2458 2698 2622 2820 2626 2530 2704 2583 2446 2434 2320 2183 1969 1802 2170 2730
2097 2057 1956 1915 2229 2511 2339 2199 2450 2681 2206 1364 1453 1544 2208 1806 1546 1545 1944 2241 2383 2227 1552 2000 1762 1557 2114 1587 1592 1613 2081 2469 2540 2839 2732 2532 2605 2452 2085 1826 1736 1975 2437 2777 2724 2474 2464 1953 1913 1811 1544 1284 1293 1147 1562 1522 1044 1180 1537 1070 1802 1072 1792 2539 3238 3279 2929 3031 2879 2886 2711 2721 2778 2927 2692 2533 2428 2474 2232 2212 2209 2132 2079 1729 1691
2380 2484 2157 2100 1930 2123 2313 2517 2650 2615 2576 1902 2103 2597 2715 2901 2211 1857 1563 1205 1297 1557 1202 1862 1698 1570 1437 1481 1850 1478 2468 2260 1578 1811 2449 1625 2153 2425 1990 1678 1551 1987 2251 2694 2834 2257 2370 1912 1468 1595 1565 1497 1107 1084 1175 1482 1313 1252 1416 1826 1663 863 1321 1040 1220 1799 3292 3232 3211 3107 2994 2688 2964 2928 2704 2687 2434 2410 2221 1967 1931 2195 2182 2227 1843
2036 1949 1998 2118 2381 2373 2501 2661 2697 2748 2868 2805 2676 2627 2094 1808 1842 1671 1469 1373 1394 1227 1361 1229 1548 1566 1648 1940 1770 2188 2563 2242 1900 1783 1965 1402 2386 2594 2556 1854 1726 1800 1960 2481 2726 2014 1809 1535 1342 1326 1572 1482 937 808 1304 1406 1261 1079 1029 1033 1676 1878 1498 1750 886 2206 2846 2928 3278 3421 3287 2578 3218 3101 3067 2938 2917 2663 2652 2530 2306 2244 2372 2423 2143
1704 2069 2155 2400 2627 2625 2445 2337 2343 2420 2722 2821 2686 2585 2085 1699 1707 1573 1441 1449 1528 1515 1358 1265 1573 1660 1820 2211 2378 2070 2068 2053 1599 1944 1239 1874 2248 2735 2922 2511 1893 1864 2004 2326 2230 2050 1723 1415 1335 1250 1272 1532 1416 1101 1132 1710 1257 1435 1409 1107 1151 1593 1278 1186 757 1407 2144 2226 2962 3172 3482 3315 3343 3278 3063 3025 3180 2905 2658 2727 2534 2466 2576 2514 2356
2124 2108 2072 2021 2118 2224 2448 2598 2683 2582 2388 2390 2527 2643 2478 2180 2076 1855 1812 1438 1280 1490 1558 1680 1792 2001 2079 1996 1966 1936 1841 1982 2010 1760 1653 1632 2448 2517 2904 2857 2404 2058 1986 2386 2528 2202 1534 1373 1161 1066 1247 1176 1441 1295 1227 1161 1619 1276 1245 1160 1251 1543 1655 1710 1703 1201 1310 2299 2171 3029 3332 3699 3585 3535 3152 3266 3366 3301 3031 2831 2843 2757 2702 2372 2392
2234 2292 2125 2031 2044 1813 1926 2015 2200 2317 2276 2248 2463 2705 2816 2766 2732 2587 2310 2061 1900 1890 2074 2062 1993 2067 1817 1665 1796 1798 1694 1568 2001 1135 1885 1290 1724 2358 2841 2970 2584 2207 2119 2388 2286 2052 1598 1213 1171 1196 1253 1251 1254 1596 1569 919 974 1849 1465 1334 1374 1229 1438 1692 1693 1307 1319 1217 1882 2217 2688 3577 3403 3369 3349 2978 3180 3530 3296 3082 3024 3094 2973 2888 2765
1695 2012 2184 2150 2135 1885 1840 1803 1531 1884 1888 1902 2182 2474 2636 2634 2678 2420 2630 2446 2383 2205 1976 1648 1405 1569 2167 2082 2117 1583 1567 1807 1871 1481 1100 1578 1435 1892 2472 2717 2680 2619 2538 2233 2067 2006 1924 1248 1416 1662 1751 1685 1444 1552 1550 1312 876 648 1099 1595 1219 1401 1614 1884 1970 1845 1756 1568 1516 1505 1883 3786 3500 3338 3169 3137 3303 3394 3346 3347 3300 3224 3069 3174 3169
1302 1417 1466 1529 1613 1817 1847 1790 1805 1834 1812 1799 1779 1764 1995 2316 2423 2575 2706 2607 2376 2205 2042 1622 2424 2591 2246 2171 2135 2206 1826 1595 1520 2059 2144 2244 2329 2408 2487 2571 2640 2487 1922 1521 1553 2084 1892 1678 1592 1946 2079 1864 1544 1245 1370 1344 996 836 784 1140 1706 2264 1844 1477 1837 1945 1918 1977 1733 1130 1357 1426 2238 2350 3016 3217 3329 3418 3200 2932 3446 2986 2933 3135 3320
900 1048 1109 1239 1325 1429 1504 1529 1614 1619 1612 1652 1641 1442 1599 1770 2188 2440 2329 2234 2272 2181 2297 2316 2442 2530 2378 2181 2197 2308 2176 1877 2111 1739 1451 1823 2309 2368 2430 2324 2334 2453 2225 1493 1970 1920 1819 1744 1769 1886 1661 1698 1429 1216 1126 1103 973 864 917 859 1190 1484 1944 1864 1804 1892 1762 2064 2272 2202 1893 1955 2059 1904 2043 2330 3075 3655 3566 3254 3274 3118 3023 3078 3157
Wind_Speed
1 3 4 4 3 5 4 4 5 7 7 7 7 9 10 10 9 9 9 8 9 10 10 10 10 10 10 10 10 9 7 5 4 3 2 2 3 3 3 3 4 5 6 7 6 4 4 3 3 4 5 6 7 7 7 7 7 10 13 22 23 14 5 10 15 15 12 10 10 8 7 9 14 16 11 12 13 12 11 10 8 3 2 3 9
1 2 3 4 1 4 5 4 6 7 8 7 7 9 10 9 10 10 10 9 9 9 9 9 9 10 10 10 10 9 7 5 4 2 1 2 2 3 3 4 5 5 7 7 9 7 5 3 3 4 5 7 8 9 10 6 8 11 10 14 22 15 10 9 14 14 12 12 11 10 8 6 11 16 16 13 10 9 10 8 7 4 2 8 9
3 1 3 5 2 2 5 5 7 8 8 8 7 9 9 9 9 9 9 9 8 7 8 8 9 9 10 10 10 10 8 7 5 2 1 1 1 2 3 4 4 5 7 8 10 10 6 3 4 5 6 9 8 9 9 7 8 9 11 14 22 18 15 12 12 9 7 10 11 10 8 5 6 12 17 16 8 7 8 4 3 4 5 8 7
6 1 2 5 3 3 6 6 7 8 9 8 8 8 9 9 9 8 8 7 6 6 7 7 7 9 10 11 11 11 9 8 5 3 2 2 2 2 2 3 4 5 7 8 8 10 9 7 6 8 6 9 9 8 8 6 9 8 11 12 19 17 18 16 14 2 1 6 9 8 3 2 3 7 15 18 12 6 4 4 5 5 8 6 6
6 4 3 4 5 4 4 6 8 9 9 8 7 7 8 8 8 8 8 7 5 6 7 7 7 8 10 10 10 10 10 8 6 5 3 3 2 2 2 3 4 5 7 7 9 10 9 11 12 6 3 7 8 6 12 10 12 10 12 13 14 19 21 20 19 10 5 6 6 2 3 2 2 3 7 14 15 6 5 6 6 10 7 7 6
5 4 3 4 5 6 3 6 8 9 9 9 8 7 7 7 7 7 8 7 6 6 7 8 8 8 9 9 10 10 10 8 7 6 5 4 3 2 3 4 6 6 7 8 11 12 12 12 12 6 6 7 8 9 11 13 12 11 13 14 12 13 16 20 21 20 13 6 7 14 3 3 3 1 3 9 14 15 13 13 13 12 9 8 7
4 3 3 4 4 6 4 5 7 9 10 9 8 7 7 6 6 7 7 7 7 7 8 9 9 8 9 9 9 9 7 7 7 7 6 4 4 4 5 5 5 6 8 9 13 13 16 12 8 10 9 7 7 9 11 12 13 13 12 12 12 11 13 14 18 19 17 9 6 14 5 2 2 1 2 3 5 11 13 13 14 13 10 8 8
4 1 2 4 4 8 5 5 7 9 10 10 8 8 7 6 5 6 6 6 7 8 9 9 9 8 8 8 7 8 7 7 8 7 6 6 6 5 5 5 7 8 10 10 12 15 11 8 9 13 10 6 3 5 10 12 13 13 13 12 11 10 11 12 13 13 13 6 4 3 6 6 2 2 3 2 4 3 4 9 11 10 9 8 5
4 2 2 4 6 10 6 6 6 8 10 10 9 9 9 7 6 5 5 5 6 7 7 7 6 5 5 5 5 7 8 7 8 9 8 8 6 5 4 5 6 7 8 9 11 12 8 7 9 10 10 7 5 3 5 9 12 14 13 11 11 11 11 11 9 6 4 10 10 7 4 8 9 3 4 5 5 4 4 8 8 8 7 5 7
5 2 2 3 6 9 7 7 6 8 10 10 10 10 10 9 7 5 5 4 5 6 7 6 5 5 5 4 4 6 8 8 9 10 9 7 5 4 5 6 6 7 7 10 12 10 5 7 10 10 9 8 7 4 2 6 10 12 14 10 10 10 12 12 12 11 12 14 12 9 3 6 13 11 5 1 3 5 4 1 4 3 4 6 3
6 4 2 4 9 9 8 8 7 8 10 11 10 10 10 9 7 6 5 5 6 6 6 7 7 7 6 3 3 6 8 9 10 10 8 6 6 5 7 7 7 9 12 11 13 7 5 7 8 10 9 8 7 6 5 7 8 11 12 11 10 10 12 12 12 13 11 13 10 8 4 3 5 10 10 6 5 6 2 3 4 5 5 3 6
7 5 4 4 10 10 8 8 7 7 10 11 11 10 10 9 9 7 6 7 7 7 7 7 7 7 6 3 3 6 8 9 9 9 7 6 6 6 6 7 7 9 13 11 11 6 6 8 8 8 7 7 7 5 5 6 6 7 9 10 11 11 11 12 12 11 13 16 14 9 5 2 4 3 12 4 3 1 1 2 4 5 3 6 5
8 7 5 6 7 9 8 9 8 8 10 11 11 11 10 9 9 8 7 7 7 8 7 5 7 8 6 4 2 5 8 8 8 7 7 6 7 6 6 7 8 9 15 13 12 6 7 8 11 10 7 7 7 6 6 6 5 6 7 9 9 10 12 14 12 14 15 16 18 11 6 5 7 14 10 9 7 5 4 4 6 4 6 6 6
8 9 6 6 7 9 9 9 9 8 9 11 11 11 11 10 10 8 7 7 7 7 7 5 5 5 5 5 2 3 7 7 6 6 5 7 6 6 6 6 8 8 15 16 11 8 8 7 10 11 10 8 7 7 8 7 6 4 8 9 9 10 11 13 14 13 14 10 11 11 14 12 9 11 10 9 10 8 7 8 7 6 6 5 6
7 9 8 7 8 7 10 9 9 9 9 11 11 11 11 10 9 8 7 7 7 6 7 6 4 4 5 6 3 1 5 7 6 5 6 6 6 5 5 5 6 12 16 19 12 12 12 12 12 14 13 11 9 7 8 8 6 5 5 7 9 8 10 12 11 12 11 10 7 7 7 8 9 5 9 9 9 9 9 8 8 6 5 4 4
7 9 9 8 8 8 7 9 10 9 9 10 11 11 11 10 9 8 8 7 7 7 8 8 6 5 5 5 4 2 3 6 6 5 6 5 5 5 5 5 13 13 13 14 14 13 13 14 12 13 13 13 11 8 8 9 7 4 3 6 10 9 10 15 12 12 11 10 8 5 9 4 10 9 8 8 9 9 8 8 7 4 3 2 2
8 9 9 8 9 8 7 7 8 10 10 10 11 11 11 11 11 10 9 8 8 9 9 9 8 7 6 5 5 3 1 4 5 5 4 5 5 5 4 5 15 14 8 12 14 14 12 12 12 12 12 11 12 8 9 7 5 3 1 4 9 10 14 16 13 12 13 12 11 8 6 6 9 9 9 8 8 8 7 5 5 3 1 1 2
10 10 10 10 9 8 7 8 9 8 8 10 11 11 11 12 12 12 11 10 10 10 10 10 9 7 8 7 6 5 2 2 4 5 4 4 5 4 4 4 16 16 9 11 12 14 14 13 12 14 13 14 11 9 10 9 5 3 1 4 6 9 14 17 15 15 16 14 10 9 7 8 9 7 8 7 7 6 6 4 3 1 2 1 1
10 10 10 11 9 8 9 8 8 7 7 6 8 10 11 12 13 13 12 12 11 11 11 11 11 9 8 9 8 6 4 3 3 3 3 3 5 3 6 5 16 15 7 7 9 12 13 14 10 11 13 13 13 11 10 8 7 5 3 4 10 12 14 14 14 15 16 14 11 8 8 10 5 6 6 5 5 4 4 3 1 2 2 2 1
10 9 10 10 9 9 9 8 8 7 6 6 6 9 11 12 13 14 13 12 11 11 11 11 11 10 9 8 8 6 5 4 3 3 4 3 6 6 6 6 12 18 11 5 12 12 12 14 14 13 13 14 16 14 10 9 9 6 6 6 10 14 14 14 15 15 15 15 14 9 9 6 4 4 4 3 2 2 2 1 1 2 3 2 1
9 9 9 9 9 9 10 9 9 8 7 6 5 7 10 12 11 13 13 12 12 11 11 11 11 10 9 8 8 6 5 3 3 3 4 3 7 6 5 5 7 14 20 3 8 15 15 17 19 17 18 19 20 18 11 10 10 8 9 9 10 14 15 16 14 12 13 15 11 9 8 3 1 2 1 2 2 1 0 1 2 4 4 3 3
8 9 8 8 8 8 9 9 10 8 8 6 5 5 8 10 10 11 11 12 12 11 10 9 10 9 10 9 7 6 4 2 3 4 3 4 6 7 5 5 6 6 17 15 6 12 16 16 20 20 17 18 21 17 11 10 11 10 11 10 11 12 15 16 15 13 12 13 12 11 5 2 1 1 1 3 3 2 2 1 3 5 5 4 4
7 7 8 8 7 8 8 9 10 9 10 8 6 5 8 8 9 9 9 11 11 10 9 9 8 8 9 8 7 5 4 3 2 8 11 9 5 6 3 2 1 4 8 18 11 6 10 13 16 18 17 20 18 17 12 8 9 12 11 11 12 12 14 15 16 15 12 12 11 12 7 2 3 3 3 3 5 4 5 3 3 5 5 5 5
7 7 8 7 7 6 7 8 11 9 9 8 7 6 7 7 8 8 7 8 9 9 8 7 6 7 7 6 6 4 4 2 6 4 5 4 4 7 5 3 6 7 7 13 22 20 14 18 16 12 13 15 17 18 15 10 9 8 8 12 11 12 14 13 14 14 13 9 11 11 7 5 5 5 5 4 5 5 5 7 7 6 6 5 5
7 7 8 8 7 7 7 8 8 8 9 9 7 6 8 7 8 9 8 7 8 8 7 7 6 6 6 4 4 5 3 2 3 5 7 8 7 5 3 2 3 3 6 5 17 22 20 17 18 17 15 16 19 18 16 12 8 9 10 12 12 12 12 13 13 13 12 9 8 6 5 6 6 6 7 6 6 6 5 6 7 8 9 7 5
10 8 8 9 8 8 8 9 9 9 9 8 8 8 8 7 8 9 9 8 8 7 7 6 6 6 6 5 3 3 2 2 4 6 7 6 6 5 5 3 3 1 3 4 5 9 11 14 16 17 19 19 17 17 15 12 9 10 11 12 12 12 12 13 12 11 11 10 6 2 4 6 6 7 8 8 7 7 6 6 6 6 8 8 6
11 9 10 10 9 9 9 10 9 9 8 8 8 8 7 7 7 8 9 9 8 7 6 5 4 4 5 4 4 2 0 3 5 7 8 7 7 6 6 4 3 2 3 3 5 6 7 10 11 12 14 14 14 14 13 12 10 10 9 10 10 11 13 14 13 11 11 9 6 1 3 5 6 7 7 9 9 8 7 7 6 6 5 8 5
10 9 10 11 11 10 11 10 11 9 9 9 9 8 7 6 7 8 7 8 7 7 6 5 5 5 3 3 3 2 1 3 6 7 6 7 6 6 5 4 3 3 3 2 4 5 6 7 7 9 12 12 12 13 14 13 11 9 10 8 10 12 12 14 14 11 11 9 7 2 4 5 6 6 7 8 9 9 9 8 8 7 6 6 5
9 9 10 11 12 11 12 10 11 9 10 10 9 8 7 6 6 7 6 8 7 5 5 5 5 5 5 2 2 3 2 nan nan nan 8 8 7 6 6 5 5 3 1 2 4 4 3 7 7 8 10 11 12 12 12 11 10 9 11 5 9 13 10 12 13 10 10 9 8 2 4 4 6 6 6 8 9 10 10 9 9 8 8 7 5
10 10 10 12 12 12 12 11 9 11 10 10 10 9 7 6 6 5 5 7 6 6 5 5 5 4 4 4 1 2 3 nan nan nan nan nan nan nan nan nan 5 3 2 3 4 3 2 3 8 4 6 8 8 9 10 11 11 10 11 10 8 10 8 10 11 10 8 9 8 6 3 4 6 6 6 7 9 11 11 9 9 8 9 7 6
9 7 9 11 12 12 12 11 9 10 9 8 9 7 6 5 5 5 4 4 6 6 7 5 4 5 4 6 3 2 4 5 nan nan nan nan nan nan nan nan 5 4 4 2 4 4 2 2 2 3 6 7 7 8 10 10 10 10 9 8 8 10 8 9 10 9 8 8 7 7 1 5 6 6 6 7 9 10 11 10 9 9 8 7 7
6 6 11 12 10 10 11 12 10 10 9 7 7 4 5 5 4 4 3 3 5 5 6 7 6 4 4 6 4 3 3 5 9 9 nan nan nan nan nan nan 5 5 4 3 4 5 3 3 3 1 5 8 7 7 6 6 9 9 10 10 7 7 7 9 9 7 8 7 7 7 5 3 6 7 8 8 9 9 9 10 9 9 8 8 8
8 8 13 14 12 12 11 10 12 12 10 6 5 4 5 4 4 3 3 3 3 4 5 6 6 5 6 6 5 4 4 5 8 9 10 10 nan nan nan nan 6 5 4 6 5 3 4 3 4 2 3 5 5 5 6 7 7 7 9 11 8 7 7 7 7 7 7 6 6 7 6 5 4 7 9 9 10 10 9 9 10 10 10 10 9
12 12 13 13 13 16 16 15 16 14 14 12 14 11 12 11 9 4 4 4 4 3 4 5 5 5 6 6 5 5 4 6 8 9 11 11 11 9 7 nan 7 5 6 5 4 4 6 5 5 6 3 3 4 4 5 7 9 7 8 10 10 8 5 8 6 6 7 7 6 7 7 7 6 5 5 10 10 11 11 11 11 11 11 11 11
10 10 11 14 13 11 8 11 14 15 12 9 8 10 12 12 13 12 7 4 5 4 3 3 5 5 6 6 5 5 5 5 8 11 11 11 11 9 7 nan 7 7 5 5 4 5 5 4 6 6 4 2 2 3 4 7 8 7 7 9 8 7 6 6 7 7 8 7 7 6 7 7 6 6 5 5 8 11 11 11 11 12 12 12 13
6 9 8 11 11 6 6 10 11 12 12 10 10 11 10 9 11 14 10 11 7 4 3 3 3 5 6 5 5 5 4 5 7 9 10 11 11 10 8 7 7 5 5 5 5 4 3 3 6 2 2 2 1 4 5 6 6 7 8 8 7 7 6 5 5 6 7 7 6 5 5 6 6 6 6 7 6 6 11 10 11 12 13 13 13
1 1 3 5 5 4 5 6 6 6 7 9 10 10 10 8 8 12 11 9 12 9 7 5 3 5 6 5 5 5 5 5 6 7 9 9 10 9 8 7 5 5 5 5 3 4 4 1 7 2 2 1 1 3 3 5 5 7 8 8 7 7 7 6 5 4 4 6 6 6 5 5 5 5 6 7 6 6 6 10 10 11 12 13 13
7 7 8 7 5 3 5 6 6 6 8 9 10 11 9 10 9 10 9 10 10 10 11 13 11 10 5 5 4 4 5 5 5 7 8 9 11 11 10 9 9 6 4 4 4 3 4 4 2 4 1 1 1 2 2 5 4 7 9 5 4 8 9 7 6 5 4 4 5 5 5 5 4 4 5 5 5 6 3 5 9 9 11 12 13
10 10 10 10 8 3 4 5 5 6 7 8 10 11 10 10 13 9 7 8 9 11 10 10 10 9 6 5 5 5 5 4 5 6 7 8 8 8 8 7 7 6 5 3 4 3 4 5 4 2 2 1 1 4 4 1 5 6 9 6 4 7 9 7 6 5 5 4 4 4 5 4 4 3 3 3 3 4 4 3 1 4 5 11 11
16 15 15 15 14 11 6 6 8 7 8 8 9 9 9 10 11 9 7 7 8 10 9 9 11 10 7 7 5 5 6 5 5 6 7 8 9 8 7 7 6 6 4 3 3 3 2 3 4 4 1 1 3 3 4 4 2 4 6 7 7 7 7 5 5 6 5 4 3 4 4 4 3 2 2 3 2 2 2 2 2 1 3 5 10
14 15 17 17 16 15 14 14 12 11 9 8 9 8 8 8 8 7 7 8 11 10 9 10 11 9 7 6 9 8 5 7 6 6 7 8 9 9 8 8 7 6 5 4 3 4 5 5 5 4 4 2 3 2 1 2 2 3 3 5 7 1 1 3 3 4 4 4 4 4 4 4 4 2 1 2 2 1 1 1 1 2 1 2 4
11 12 13 13 14 15 16 14 13 12 11 8 6 6 6 6 7 7 8 10 12 14 12 10 10 10 9 8 11 9 4 7 8 7 7 7 7 8 7 7 7 6 5 5 4 4 4 4 4 4 1 2 2 2 0 1 3 2 3 4 3 4 5 2 2 3 3 4 4 3 3 3 4 3 3 2 1 1 1 1 0 1 1 0 0
9 9 10 11 11 11 11 13 14 14 13 12 12 12 10 9 7 6 7 8 10 12 10 12 14 10 10 10 11 7 6 8 8 7 7 6 6 7 8 7 6 6 5 4 2 2 2 2 2 3 3 1 1 1 2 1 3 2 2 4 3 5 7 4 4 3 4 4 4 3 2 2 1 3 3 3 2 1 1 1 0 0 0 1 0
9 9 10 10 10 9 9 11 13 15 15 18 17 14 14 12 10 8 6 5 4 6 7 9 8 8 9 10 10 6 5 9 7 7 10 9 7 7 7 7 7 7 6 5 4 2 1 2 2 2 2 3 0 0 2 3 2 3 2 3 6 7 3 2 2 0 2 6 3 3 2 2 1 1 3 2 2 2 2 1 1 1 1 0 0
7 7 8 9 10 10 11 11 12 14 15 15 16 15 14 12 9 8 7 5 5 3 6 7 7 8 9 10 9 7 8 8 7 7 13 9 11 9 8 9 8 8 7 6 4 2 2 2 2 3 1 1 1 1 2 2 2 3 5 5 4 5 8 10 11 9 8 5 4 3 2 1 2 1 1 2 2 2 2 1 1 2 2 1 1
5 6 6 6 7 9 9 11 12 13 14 15 16 16 14 12 12 11 9 8 7 7 7 7 9 10 10 11 11 10 10 10 9 13 9 9 10 9 9 9 8 8 8 7 6 5 2 2 3 3 1 1 2 2 2 5 4 4 3 4 7 9 9 10 11 7 6 9 7 4 3 2 3 2 2 1 1 1 2 2 2 2 2 1 1
5 7 7 6 6 7 6 8 10 10 12 14 15 16 15 14 13 12 10 9 7 6 6 5 8 11 12 11 11 11 12 11 12 14 10 8 11 11 10 10 10 11 10 9 8 7 6 4 4 4 4 3 3 1 1 4 5 4 4 3 4 5 6 7 9 10 8 9 8 7 4 4 3 3 2 2 2 2 2 1 1 2 2 1 1
6 7 8 9 9 8 7 8 9 9 9 10 13 14 14 14 13 13 11 11 11 8 7 5 5 8 10 10 11 12 14 14 13 12 13 16 12 12 12 12 12 13 12 11 10 10 10 8 6 5 6 6 4 2 2 3 4 6 5 5 5 4 5 6 7 9 10 8 6 4 8 5 4 3 2 2 4 4 3 3 3 3 3 3 3
9 9 9 10 11 11 11 10 10 10 10 9 8 10 12 12 11 11 11 11 10 10 11 12 9 4 6 9 11 12 14 14 12 12 10 12 12 11 13 14 15 15 15 14 12 11 11 10 10 9 7 8 6 4 3 3 3 4 6 6 6 6 6 7 6 6 9 9 8 8 8 9 6 6 4 3 3 4 3 4 4 3 3 3 4
11 11 11 11 13 13 14 14 13 12 12 11 10 10 10 12 12 11 9 8 8 9 10 7 7 7 5 6 9 12 14 14 14 17 15 14 14 15 15 15 15 16 19 17 13 14 14 14 12 10 8 7 7 5 4 3 3 4 4 6 8 8 7 8 8 7 6 7 8 9 9 6 6 4 6 5 3 3 3 4 5 4 4 4 5
12 12 13 13 13 14 15 17 16 16 15 14 14 12 12 12 12 12 11 9 8 8 8 9 8 8 8 7 8 10 11 14 16 20 16 14 16 16 16 16 18 19 19 15 16 16 16 15 15 12 8 7 8 6 5 3 3 4 3 5 6 7 8 9 9 9 8 8 7 7 8 9 10 9 7 7 8 5 4 4 5 4 4 4 5
Wind_Direction
130 306 296 276 79 90 16 344 323 310 307 305 315 320 319 312 303 305 310 317 324 321 314 312 307 300 298 295 290 290 289 288 286 308 332 349 5 354 337 316 305 307 315 315 309 285 242 222 238 254 289 302 304 303 303 305 306 296 291 302 306 314 285 271 271 268 269 268 265 277 298 296 302 302 299 287 292 309 314 309 306 300 252 223 267
344 314 302 314 38 90 12 345 326 308 306 302 311 320 320 314 305 307 311 321 326 320 315 308 299 295 295 293 290 289 286 281 288 295 330 359 346 342 331 314 306 307 306 303 300 291 259 235 272 287 290 306 309 307 288 315 294 302 300 297 292 286 288 262 266 268 278 276 278 282 276 284 303 309 303 300 318 319 316 319 314 314 258 276 275
294 274 304 310 347 66 2 344 323 307 299 301 306 315 320 319 310 309 313 320 330 326 321 313 301 299 299 297 296 297 291 281 278 280 322 305 316 323 317 296 289 288 291 293 289 286 278 325 300 288 292 284 260 258 243 203 285 299 303 292 293 305 302 280 254 250 271 289 289 289 268 246 284 298 307 309 329 330 316 348 75 304 264 278 268
299 269 287 285 318 38 345 337 322 308 300 302 307 318 321 322 322 321 322 325 334 329 325 321 309 301 296 294 298 296 286 281 278 282 271 271 274 273 274 269 266 267 276 274 278 291 311 309 271 233 249 277 304 298 303 310 283 283 287 281 291 302 291 286 272 179 312 294 286 284 263 268 242 303 310 313 326 326 324 6 63 277 283 277 277
291 285 276 307 334 356 346 331 319 313 305 303 312 316 321 323 327 326 325 327 333 332 324 323 315 302 296 293 289 283 279 277 281 280 266 252 245 238 236 243 241 245 250 256 262 265 269 275 269 292 2 295 307 330 311 312 282 279 279 276 273 296 310 312 315 323 254 213 196 120 265 229 218 281 303 306 299 312 332 14 341 286 282 296 312
276 280 304 316 325 318 331 326 320 313 309 311 315 318 317 314 320 321 322 326 333 332 328 328 320 307 293 283 275 272 274 284 292 280 273 267 256 241 223 212 216 221 229 234 242 248 253 255 281 307 291 308 325 323 311 290 283 284 272 270 267 266 288 301 296 301 313 307 143 131 224 273 239 162 309 305 309 320 332 346 309 295 301 316 329
286 272 306 313 298 302 311 317 316 312 313 315 316 317 309 309 309 315 319 325 329 325 325 329 324 309 291 280 269 266 274 278 274 267 265 260 248 230 219 206 204 211 228 225 240 246 246 266 286 281 289 304 322 315 298 293 296 282 276 268 262 255 253 274 292 304 309 327 160 129 160 214 275 126 330 278 277 297 310 310 301 300 312 331 347
254 246 308 312 295 293 308 312 310 312 315 318 321 315 308 307 308 305 315 320 325 324 324 327 328 318 300 291 276 260 257 261 262 258 251 245 230 221 214 201 205 203 217 225 234 244 265 277 280 287 287 282 268 267 291 294 281 282 279 268 259 244 234 250 270 295 315 252 299 195 169 142 197 275 334 265 239 239 263 284 285 299 321 353 344
268 278 311 292 287 300 299 305 307 312 317 320 322 315 312 314 314 313 319 318 319 320 321 327 324 321 317 307 281 244 238 244 246 243 238 233 234 225 219 218 216 218 219 227 236 249 270 273 263 263 270 286 285 239 271 289 292 289 286 271 250 232 221 221 226 234 288 263 254 246 219 150 153 156 327 349 344 2 17 287 288 302 328 330 353
273 277 274 273 288 296 302 301 308 313 317 319 322 319 318 323 320 325 327 328 322 327 336 345 348 354 355 321 261 237 234 240 243 242 242 241 238 243 227 230 248 241 233 235 243 253 273 274 273 274 270 288 293 279 259 282 283 288 284 261 246 232 216 206 194 184 197 250 249 253 242 190 148 153 152 123 24 343 303 312 227 313 306 350 350
287 273 268 272 293 298 296 299 310 318 319 318 321 322 323 325 322 324 331 332 333 331 349 10 17 15 6 333 245 224 227 231 234 238 245 247 242 231 245 248 245 249 238 243 247 258 267 264 271 278 284 295 300 292 272 266 269 274 283 273 244 241 215 206 185 183 191 228 243 248 260 240 193 157 125 125 189 218 215 223 263 284 318 315 267
290 275 268 268 285 298 295 298 309 321 323 316 319 324 325 328 324 320 329 334 336 339 356 10 17 12 2 349 244 218 215 223 225 222 230 238 236 237 240 243 254 270 275 257 265 269 275 288 282 281 292 309 321 311 289 264 256 260 265 270 260 249 221 200 163 177 198 203 200 224 279 267 230 321 38 330 265 279 216 264 289 299 290 270 291
296 282 269 287 284 295 300 303 313 326 327 315 318 322 323 324 315 322 330 337 336 342 355 10 10 8 348 332 294 221 214 216 220 218 213 218 227 232 239 246 248 252 271 282 274 293 291 311 318 314 310 316 328 322 309 276 242 238 238 239 228 233 211 185 177 181 183 201 177 183 203 185 256 321 322 316 332 350 333 326 307 299 278 291 303
302 292 278 287 275 296 301 306 312 326 328 316 316 318 319 324 321 316 326 331 342 349 355 4 7 353 328 327 339 238 221 218 216 215 214 214 221 228 228 240 255 263 269 272 286 304 289 329 329 323 334 333 323 318 317 299 266 246 218 216 218 218 194 177 176 181 181 193 177 167 176 181 222 284 298 319 339 335 333 318 315 294 292 299 302
297 296 287 286 283 293 305 309 315 326 328 316 315 318 322 323 324 320 328 333 336 343 351 1 335 324 320 318 321 276 225 221 216 213 209 214 216 227 234 242 247 237 252 287 314 312 322 340 331 331 334 336 333 327 322 308 284 242 212 188 190 197 187 175 172 176 172 171 181 169 232 181 264 312 298 326 331 330 317 317 307 295 299 306 304
281 283 288 285 290 288 299 308 317 326 324 318 317 321 326 329 333 333 333 330 327 336 346 348 331 318 320 312 304 312 214 219 215 209 207 216 215 224 230 240 247 242 260 291 300 313 325 329 327 331 332 334 336 335 329 316 290 284 217 179 175 184 174 167 172 167 168 167 168 147 241 256 318 301 310 323 332 318 315 311 296 297 302 306 317
275 280 281 283 293 295 294 305 312 322 324 325 319 322 332 338 341 340 336 335 329 332 340 332 329 321 328 322 325 334 268 215 214 210 208 218 226 222 223 239 265 259 269 280 302 309 322 333 330 329 333 336 334 337 358 3 321 305 213 162 174 171 165 158 165 166 168 174 169 167 201 265 300 309 310 325 319 312 308 302 293 277 267 274 333
274 281 281 286 283 296 296 302 309 323 325 328 328 326 338 344 346 344 343 342 336 334 338 335 330 332 332 331 334 339 325 252 226 231 209 226 234 231 230 214 262 264 282 306 300 315 324 324 326 333 340 346 348 350 15 30 36 21 126 163 153 165 154 152 159 167 169 170 157 165 174 254 294 306 313 318 310 309 307 300 279 255 190 162 332
281 282 282 286 289 296 298 300 313 318 328 335 332 329 341 346 349 348 348 346 343 345 346 342 340 340 335 333 334 347 335 294 262 241 234 228 234 268 231 217 267 283 275 291 313 320 325 323 331 336 340 349 355 7 13 27 35 44 87 144 146 146 153 151 153 163 166 158 154 161 196 274 290 304 306 314 304 307 305 311 302 169 161 161 358
284 285 281 287 292 300 299 300 307 315 324 329 332 332 336 345 352 352 352 351 349 353 352 352 351 347 344 335 339 346 344 313 292 294 257 236 248 218 230 209 276 295 301 332 328 330 336 333 347 350 350 358 360 7 11 34 46 52 82 124 135 143 147 149 158 155 155 159 160 159 239 274 289 290 311 323 314 321 294 289 224 153 149 133 85
276 295 287 286 297 304 308 298 306 314 318 320 322 331 328 341 349 353 352 353 354 359 0 358 358 357 354 349 341 3 333 284 293 229 284 233 242 253 225 212 262 291 310 4 358 340 349 350 347 343 352 2 4 8 11 33 45 77 98 113 131 139 148 149 152 147 148 158 162 168 258 258 293 290 321 360 24 359 54 139 144 154 150 135 124
284 290 293 294 295 300 309 302 296 309 304 301 299 313 315 336 339 342 346 351 357 2 5 11 1 359 9 348 358 341 339 321 227 196 182 229 282 239 230 230 245 293 312 323 16 346 347 351 349 345 352 6 5 13 29 40 41 73 95 113 123 140 147 145 147 143 148 153 159 211 254 252 138 122 40 90 87 77 94 97 138 150 153 147 145
278 284 284 304 293 294 303 301 294 297 298 291 281 300 309 322 327 331 335 351 352 2 10 15 9 10 360 3 354 346 346 306 201 188 187 198 200 249 252 217 292 318 337 316 329 334 351 6 356 350 4 10 16 25 37 50 55 59 76 103 124 136 143 143 142 140 142 150 157 226 211 170 135 124 111 91 114 127 118 133 137 152 149 151 151
269 268 275 277 285 278 294 299 286 293 289 279 276 290 301 313 310 321 324 331 345 353 11 12 18 13 12 10 359 325 328 325 235 204 146 146 272 325 313 17 17 353 328 333 320 328 353 10 359 358 6 12 21 26 43 51 63 87 101 112 120 131 135 138 138 137 134 143 151 222 194 149 128 121 107 107 118 120 127 141 148 153 151 160 153
265 256 253 262 279 273 267 274 274 276 280 271 269 280 295 303 303 309 318 325 333 339 355 8 17 19 23 27 37 314 335 294 230 185 170 194 186 192 253 236 249 287 340 299 331 335 344 350 344 356 21 24 27 28 41 44 64 88 99 111 118 122 132 136 140 139 132 132 134 218 177 139 128 121 109 106 110 115 137 139 142 151 155 155 150
262 253 253 253 263 264 262 261 266 270 274 270 269 267 283 292 300 306 313 323 327 332 342 355 3 15 25 29 55 337 309 264 232 195 189 190 186 197 213 226 229 252 301 320 320 316 331 329 337 356 9 25 26 33 41 53 62 81 97 100 113 122 126 131 132 135 133 128 137 194 146 126 120 119 113 102 102 106 116 126 144 151 141 141 149
260 262 262 251 254 258 257 254 255 261 273 270 261 258 272 281 290 300 308 316 322 328 335 339 345 350 19 38 37 31 271 222 245 220 192 186 193 189 208 215 195 215 265 322 305 298 318 332 343 355 3 15 28 35 47 64 78 97 99 97 112 122 125 123 123 128 130 132 144 79 116 112 108 114 112 101 97 103 112 117 126 128 136 118 141
254 265 264 256 250 260 258 256 253 255 257 262 256 253 259 275 284 287 298 303 315 327 327 323 307 317 5 24 57 85 148 208 228 230 209 192 194 191 194 199 203 200 259 286 294 280 314 324 346 351 354 19 29 39 50 62 76 104 121 124 114 123 122 120 120 124 127 131 135 84 97 100 103 109 111 107 102 98 102 104 111 116 108 101 118
254 255 259 255 255 253 262 254 252 252 250 251 252 249 253 258 273 280 292 293 305 319 319 302 309 316 326 9 29 91 137 nan nan nan 223 203 199 182 179 197 202 203 228 285 262 268 292 315 340 357 359 23 32 35 55 77 86 95 104 123 135 114 119 118 118 121 126 133 134 133 49 91 107 108 104 106 106 100 98 101 108 114 112 110 107
242 238 240 247 249 260 265 265 254 250 241 246 242 247 251 251 258 263 264 286 302 310 301 316 315 317 332 332 348 121 141 nan nan nan nan nan nan nan nan nan 212 191 206 234 256 264 275 296 309 358 23 37 42 45 54 73 92 106 102 117 123 110 123 119 115 116 123 129 131 136 30 104 114 112 104 104 104 105 102 100 102 104 107 110 109
224 246 247 243 249 253 265 264 259 253 246 242 244 246 258 262 266 275 276 286 300 308 315 314 309 319 317 292 292 249 166 176 nan nan nan nan nan nan nan nan 214 176 209 212 246 246 208 230 264 11 55 46 45 59 45 67 89 103 105 98 101 111 124 120 116 118 122 122 129 132 133 64 96 103 103 97 99 101 103 102 95 98 100 107 111
239 257 248 231 229 250 256 265 256 254 249 243 253 259 284 295 299 289 285 299 302 311 318 318 317 311 292 294 292 261 224 181 188 196 nan nan nan nan nan nan 216 176 197 209 211 223 206 212 251 89 37 44 47 50 74 54 77 79 91 104 133 127 126 125 122 118 119 127 135 136 147 119 67 87 90 91 91 98 101 103 102 95 97 99 93
240 246 235 226 221 224 236 250 249 241 242 246 255 255 255 273 302 296 276 261 279 289 302 311 308 299 288 286 282 265 234 194 200 201 197 199 nan nan nan nan 207 188 183 193 195 204 211 229 229 264 32 59 59 84 100 97 86 87 110 135 141 138 130 124 127 129 129 129 127 138 148 148 119 68 77 80 84 89 93 95 98 94 89 90 89
226 233 238 234 231 224 222 238 250 253 244 215 216 224 231 221 208 233 263 240 228 247 281 291 293 281 281 285 281 271 239 212 200 202 205 198 195 192 185 nan 204 197 175 188 189 185 213 224 218 248 323 28 64 78 94 87 91 96 119 124 135 157 149 124 133 138 141 137 143 147 145 142 134 121 97 74 78 82 85 89 91 92 88 84 87
241 236 229 238 252 256 249 244 246 258 256 247 244 247 233 223 224 203 204 241 214 219 229 265 285 281 276 278 281 267 250 224 213 206 202 203 197 189 183 nan 208 207 179 192 182 180 211 247 266 291 334 25 23 42 82 72 71 90 112 119 127 148 139 138 143 152 148 159 152 144 138 134 133 133 129 120 80 76 81 86 85 85 86 85 83
266 258 246 244 241 247 258 252 246 254 255 245 247 257 253 242 234 231 201 208 211 220 224 218 253 276 274 266 270 264 253 233 217 217 205 200 198 194 191 199 209 204 176 184 184 161 205 244 277 209 153 200 309 44 61 72 69 85 96 107 126 140 137 137 144 150 157 156 158 145 141 136 137 142 137 135 127 86 66 80 83 81 83 86 84
337 316 286 275 270 262 259 261 245 236 251 257 255 257 252 250 246 235 220 226 229 210 211 193 218 252 257 253 266 267 259 243 233 223 213 202 197 194 194 194 202 202 185 172 183 168 155 225 286 243 153 184 31 18 62 78 72 82 82 102 129 137 136 148 150 155 166 153 158 154 148 145 147 148 146 136 135 137 48 65 76 79 82 82 82
50 47 62 60 36 312 267 254 247 246 255 265 267 265 265 258 260 251 245 230 232 229 228 229 213 206 226 264 254 255 253 258 243 231 217 201 196 194 197 197 199 205 198 174 173 168 155 153 232 294 357 87 323 350 36 75 52 73 85 96 134 130 136 149 162 164 174 158 153 150 152 157 156 155 153 144 141 144 158 51 58 70 76 80 78
60 55 58 63 64 43 291 279 292 289 279 290 287 284 290 293 275 269 264 259 242 233 233 243 246 243 213 212 260 259 261 261 249 240 218 208 203 200 199 206 208 200 197 175 161 162 162 153 158 225 279 103 130 347 357 135 81 92 115 100 79 93 138 154 166 167 172 167 159 158 160 153 159 159 154 159 159 154 152 188 125 112 95 64 76
55 54 49 48 46 48 41 24 26 6 326 309 290 284 285 292 290 280 263 262 263 259 262 265 264 251 236 220 214 257 249 247 242 235 215 203 202 204 205 211 215 207 200 173 158 178 193 161 148 147 151 30 21 48 11 16 94 33 28 41 39 83 120 153 173 177 176 181 179 161 161 153 153 167 144 154 164 163 171 175 190 137 125 36 46
60 58 54 52 52 51 42 40 38 32 9 344 327 313 313 310 306 290 267 265 269 267 268 272 267 263 254 244 237 203 253 256 240 228 220 215 208 202 200 209 212 207 199 178 160 157 185 191 184 191 138 102 106 39 13 147 130 110 155 157 162 115 68 170 207 193 190 207 187 180 172 166 162 171 179 162 154 154 182 200 159 170 162 170 12
59 66 64 62 56 50 52 46 38 29 28 22 359 351 338 320 302 289 279 281 276 265 258 264 265 259 264 256 247 246 189 243 238 234 227 218 219 212 210 213 215 213 202 182 167 181 178 181 177 165 137 112 105 67 336 319 38 68 149 151 162 204 190 238 218 224 230 227 220 206 186 184 170 169 191 222 191 158 151 186 192 95 80 83 199
59 65 66 64 63 58 48 41 35 30 14 35 34 31 21 11 1 346 313 297 284 262 256 246 249 251 251 254 266 248 221 230 226 231 224 228 223 216 206 209 216 221 217 201 182 143 171 166 178 169 168 135 94 62 331 342 133 185 176 146 155 223 155 182 196 232 274 241 239 231 217 203 175 169 188 186 213 219 211 200 190 196 357 40 3
44 48 51 56 56 51 42 32 27 26 22 17 25 29 33 28 25 14 1 339 302 277 262 267 267 256 259 271 264 257 244 241 237 200 228 206 223 220 215 209 222 230 221 213 202 161 202 215 194 192 195 156 185 154 313 299 175 199 157 185 186 179 214 155 329 217 248 270 260 253 235 214 220 148 180 187 188 211 224 239 334 274 257 319 323
31 37 45 42 45 44 37 30 24 21 18 17 16 18 21 24 22 18 12 9 347 303 267 263 267 265 264 271 266 251 244 249 245 225 209 216 228 225 220 212 217 227 233 235 236 197 169 212 235 213 216 182 162 211 259 262 263 218 187 186 185 187 192 219 197 217 254 249 273 276 244 307 276 262 197 195 191 212 223 249 259 275 293 292 324
11 20 31 33 34 32 29 22 20 16 14 13 13 10 9 15 12 8 6 356 358 342 314 279 267 270 273 266 265 251 245 240 228 251 233 198 237 237 234 228 217 229 238 234 235 249 235 200 240 249 249 343 182 231 244 266 208 240 242 194 189 186 192 193 183 224 213 230 251 258 273 287 270 281 268 246 281 202 237 238 274 282 280 295 314
349 353 351 355 5 7 15 8 8 6 4 8 9 5 6 5 8 7 3 360 4 359 336 296 258 257 262 265 258 245 238 238 236 229 246 228 229 235 237 235 227 223 234 240 245 247 250 251 240 255 255 248 284 232 237 257 255 239 248 215 210 191 193 189 197 195 205 225 201 253 254 276 281 290 294 302 310 302 275 276 286 302 313 321 344
346 343 334 334 329 329 342 346 347 345 349 356 358 358 360 359 359 359 352 354 355 347 337 327 288 261 256 256 257 253 243 246 248 235 231 225 217 232 236 232 231 231 235 237 240 247 249 245 249 248 246 251 256 247 256 274 274 256 235 232 239 218 186 194 194 192 191 192 239 236 234 262 254 268 281 292 327 322 322 303 307 315 312 329 328
332 330 329 324 319 315 317 321 322 333 332 334 338 342 346 345 347 348 347 344 343 338 327 328 322 300 264 257 260 257 251 242 244 257 249 259 252 238 236 234 234 234 234 237 240 244 252 253 252 252 251 253 258 259 234 248 259 255 252 243 232 220 212 213 213 218 195 198 202 213 241 244 224 216 252 250 267 292 304 305 307 323 311 316 328
325 323 322 321 317 316 309 307 305 310 312 314 320 325 324 326 331 330 337 333 324 318 311 317 304 295 279 266 259 259 261 256 247 235 233 241 233 233 233 235 236 238 238 226 233 246 250 255 256 253 256 259 256 260 261 249 243 238 242 243 244 229 211 212 224 225 220 211 203 207 221 249 248 233 246 249 269 270 293 296 307 326 322 317 324
319 318 316 313 313 309 305 301 298 299 297 296 299 302 308 309 314 313 314 318 314 311 306 305 304 303 296 284 275 273 265 262 262 252 231 241 245 240 233 234 236 238 245 241 240 247 253 259 260 261 250 247 251 257 259 252 229 237 211 234 242 240 231 227 228 230 221 225 223 218 224 218 216 221 229 242 256 264 274 289 304 312 315 317 318